Wind_Speed
34 36 37 37 37 38 39 40 39 39 40 41 40 39 37 37 37 38 38 38 38 38 38 37 37 37 36 36 35 34 33 34 34 34 33 33 33 33 33 33 33 34 34 34
36 37 37 38 39 40 40 41 41 41 42 42 41 40 38 37 37 38 38 38 39 38 38 37 38 38 37 37 36 35 34 34 34 34 34 34 34 34 34 33 33 33 34 35
38 38 38 39 40 41 42 42 41 42 42 43 43 41 38 37 37 37 38 39 39 38 38 37 38 38 38 38 37 36 35 35 35 35 35 35 35 34 35 34 33 34 34 35
38 39 39 40 41 42 42 41 41 42 43 42 42 42 38 38 37 37 37 38 37 38 38 38 38 38 39 38 38 37 37 36 36 35 35 35 34 34 35 35 35 35 35 35
39 39 40 41 41 41 41 40 41 41 41 42 41 42 41 39 38 37 37 37 36 36 37 37 37 38 39 38 38 38 37 37 37 36 36 35 35 35 35 35 35 36 37 37
39 40 41 41 40 40 40 40 40 40 40 41 39 41 41 38 37 37 37 36 36 36 36 37 37 38 39 39 39 38 38 38 38 37 37 36 36 35 35 35 35 36 36 37
39 39 40 40 40 40 40 39 39 39 40 40 39 40 39 37 36 36 35 35 35 36 36 36 37 38 39 39 39 39 38 38 38 38 38 38 37 36 36 36 36 36 36 36
40 39 39 39 39 39 38 38 38 38 39 38 38 38 37 37 36 35 34 34 34 35 35 36 36 37 38 38 38 39 38 38 38 39 39 38 38 37 37 37 36 36 36 36
40 40 38 38 38 37 37 36 36 36 37 38 38 37 36 35 35 34 32 32 33 34 34 35 35 36 37 38 38 39 39 39 39 39 40 39 39 39 38 37 37 37 37 37
40 40 38 36 36 36 36 35 34 35 35 37 37 35 35 33 32 32 32 32 33 34 34 34 35 36 37 37 38 38 39 39 39 40 40 40 39 39 38 38 38 38 38 38
39 39 38 37 35 34 33 34 34 35 36 36 37 35 34 33 32 32 31 31 31 32 33 33 34 35 35 35 36 38 38 39 39 40 40 40 39 39 39 39 39 38 37 37
36 37 38 37 35 34 33 32 33 34 34 35 36 35 33 33 32 32 32 31 31 31 32 33 34 34 35 35 36 37 38 38 39 40 40 40 40 39 39 40 39 39 38 38
35 36 36 36 35 35 35 33 32 33 34 34 34 33 32 33 33 33 33 33 32 32 32 33 33 34 34 35 36 37 38 38 39 40 40 40 40 40 39 39 39 39 39 38
35 36 36 35 34 35 35 34 34 34 34 35 35 33 31 31 32 33 33 33 33 32 32 32 33 34 35 36 37 37 38 38 39 40 40 40 40 40 40 39 39 39 39 39
35 36 35 34 33 33 33 33 33 33 33 34 34 34 33 32 32 32 32 31 32 32 32 33 33 33 34 35 36 36 37 37 38 39 39 40 40 40 40 39 39 39 39 39
34 34 33 32 31 32 32 31 32 32 31 33 33 32 31 32 32 32 32 32 32 33 33 33 33 34 34 34 35 35 36 36 37 38 38 39 39 39 39 39 38 38 39 39
33 33 33 32 30 31 31 29 31 32 31 31 31 30 30 30 30 30 31 31 31 31 32 32 33 33 33 34 34 34 34 34 36 37 37 38 38 39 39 39 39 38 39 39
32 32 31 31 31 31 30 29 29 30 30 30 30 30 31 31 31 31 31 31 32 32 32 32 32 33 32 33 34 33 33 34 35 36 36 36 37 37 37 37 38 38 38 38
30 29 30 30 30 30 29 29 29 29 29 29 29 29 30 30 30 30 30 30 31 31 32 32 33 33 33 33 34 34 34 35 35 35 35 35 36 36 37 37 37 37 37 38
29 28 28 28 27 27 28 29 30 30 30 30 30 30 30 30 30 30 30 30 30 31 31 32 32 33 33 34 35 35 35 35 35 35 36 35 36 36 37 37 38 38 38 39
27 27 26 26 25 25 26 27 28 30 31 30 31 30 30 30 31 30 30 30 30 31 32 32 32 33 34 35 35 36 36 36 36 36 36 36 36 36 37 38 38 39 39 39
26 26 25 25 25 25 25 25 26 27 28 29 29 29 29 29 29 29 29 29 30 31 32 32 33 33 34 35 35 36 37 37 37 37 37 37 37 37 38 39 39 39 39 39
26 25 25 25 25 25 25 25 25 26 27 28 29 30 29 29 29 29 29 29 30 30 31 32 33 33 33 34 34 35 36 37 37 38 38 38 38 38 38 39 39 38 38 38
25 25 25 26 25 25 25 25 26 26 26 27 29 29 29 28 27 28 29 29 29 30 30 31 31 31 32 32 33 34 35 35 36 37 37 38 38 38 37 38 38 37 37 37
24 24 24 25 24 24 24 25 25 25 24 25 26 27 28 27 27 26 26 28 29 29 30 30 30 30 30 30 31 32 33 33 33 34 35 36 36 36 36 36 37 37 36 36
24 23 24 23 24 24 24 24 24 24 24 24 24 25 26 26 26 27 27 27 28 29 29 29 29 29 29 29 30 30 31 31 31 31 32 33 33 34 34 35 35 35 35 35
Wind_Direction
281 278 277 277 276 275 275 274 273 273 272 271 269 268 265 264 263 262 260 260 260 259 258 258 257 257 257 256 257 256 256 256 257 257 257 258 257 257 256 256 257 258 257 256
281 279 279 277 275 275 275 274 274 273 272 271 269 266 263 262 261 261 260 260 260 258 256 256 256 256 256 256 256 256 255 256 256 257 256 257 257 257 256 255 257 258 257 256
281 281 279 277 276 275 274 275 274 274 272 271 270 265 262 260 260 261 261 260 260 258 255 254 254 255 255 255 255 256 255 255 255 256 257 257 257 257 256 257 259 258 258 257
281 280 278 277 276 275 274 275 275 274 273 271 268 266 262 261 260 261 261 260 259 256 255 254 253 253 254 254 254 255 255 254 255 255 256 257 258 257 257 257 259 259 258 258
282 280 278 277 276 275 275 275 274 273 271 270 268 266 265 263 261 260 261 261 259 256 255 254 253 253 253 253 253 254 254 254 254 254 255 256 257 258 258 258 260 260 260 259
282 280 278 277 276 275 275 274 273 271 270 268 268 267 267 266 266 265 264 261 258 257 255 254 254 253 252 252 253 253 253 253 253 253 254 254 255 257 258 259 261 262 261 260
281 279 278 277 276 274 273 273 271 270 269 269 268 267 267 268 267 267 265 262 258 256 256 255 254 254 253 253 252 252 252 253 253 252 253 253 254 256 258 259 260 262 262 261
282 279 278 278 277 275 273 272 270 271 271 270 268 267 268 268 268 267 265 262 258 256 255 255 255 255 254 253 252 252 252 252 252 252 252 253 254 255 257 258 260 262 263 262
284 280 279 278 278 277 274 271 270 270 271 270 269 269 268 268 267 265 264 261 258 257 256 256 254 254 253 252 251 251 251 251 251 251 252 253 254 255 256 257 259 261 262 262
285 282 279 278 276 275 273 270 268 267 268 270 269 269 268 267 266 264 263 261 257 256 255 255 254 253 252 251 251 251 250 250 251 251 252 253 254 256 256 257 259 261 263 263
286 284 281 278 276 274 271 267 266 265 266 268 270 269 269 268 267 264 261 261 259 256 255 253 253 253 252 250 251 251 251 251 251 252 252 253 254 256 257 258 259 261 263 263
286 284 281 278 276 273 271 268 266 264 264 264 267 267 267 267 266 265 263 261 259 257 255 255 254 253 251 250 251 252 252 252 252 252 253 254 255 257 258 259 260 261 263 264
285 284 283 280 276 273 271 269 266 264 264 264 264 266 266 266 266 264 262 260 259 258 257 256 255 254 252 252 253 254 254 253 253 253 254 255 256 258 259 260 261 262 263 264
284 282 281 280 278 274 272 269 266 264 263 264 264 265 265 264 264 262 261 260 259 259 258 257 256 254 252 252 254 254 254 254 254 254 255 256 258 259 260 261 262 262 264 265
285 283 280 278 277 275 272 270 267 264 263 264 264 263 264 263 262 261 261 259 258 257 257 257 256 255 254 253 254 254 254 254 254 256 257 258 259 260 260 261 262 263 264 265
287 284 281 278 277 276 272 270 267 265 264 264 264 264 263 263 262 261 259 256 256 255 255 255 255 254 254 253 253 254 255 256 256 257 258 259 259 259 259 259 261 262 264 264
288 286 283 280 277 274 270 269 266 266 265 264 264 264 262 261 261 260 258 256 256 256 255 256 255 254 253 252 253 254 255 255 256 258 258 259 259 259 259 260 261 262 263 263
290 286 284 282 278 273 271 269 267 265 264 263 263 262 262 262 262 261 259 257 257 257 256 255 255 254 253 252 252 253 254 255 256 258 258 259 260 259 259 260 261 262 262 263
292 288 285 285 281 277 273 268 266 265 262 262 261 260 260 260 261 262 262 260 258 257 256 256 256 255 253 253 253 255 255 256 257 258 260 261 261 260 260 261 262 262 263 264
292 290 287 285 281 279 276 271 267 265 263 262 261 260 260 260 259 259 260 260 258 257 257 256 255 255 255 254 254 254 255 257 258 259 260 261 262 262 263 263 263 263 264 264
290 289 286 283 280 280 279 276 271 267 265 263 263 262 262 262 261 260 259 259 259 257 257 258 257 257 257 257 256 256 257 258 258 259 261 262 262 263 265 265 265 265 265 265
290 289 287 285 282 280 278 276 274 271 267 266 265 264 262 261 261 260 259 258 257 257 258 258 259 259 259 259 259 259 259 258 259 260 261 263 263 264 265 266 266 266 266 266
289 289 287 286 285 282 279 278 277 275 271 268 266 265 265 263 262 261 260 260 259 260 261 261 261 260 261 262 262 260 260 261 261 261 262 264 265 265 266 266 267 267 267 266
288 286 285 284 283 282 280 278 279 277 274 270 267 266 265 266 264 261 259 259 261 262 262 261 260 261 263 263 263 262 263 264 264 263 263 265 265 265 265 266 266 267 267 267
287 286 284 281 282 281 280 280 281 280 277 273 269 266 266 266 264 263 261 260 261 263 263 262 261 262 263 264 264 264 265 265 265 265 265 265 265 264 265 266 267 267 268 268
287 286 284 282 281 282 282 281 282 281 279 277 273 269 266 264 262 261 262 263 263 263 262 263 263 263 264 265 266 266 266 265 265 265 265 265 265 265 266 266 267 267 269 270
Height
5712 5711 5710 5710 5708 5707 5706 5705 5705 5705 5703 5702 5702 5702 5703 5702 5702 5703 5703 5704 5705 5706 5708 5709 5711 5713 5714 5716 5718 5719 5720 5722 5723 5724 5726 5727 5728 5729 5730 5732 5733 5735 5736 5738
5703 5702 5702 5699 5697 5696 5695 5694 5694 5694 5692 5690 5690 5691 5693 5692 5692 5693 5694 5694 5695 5696 5698 5700 5702 5703 5705 5707 5709 5710 5712 5713 5715 5716 5717 5719 5720 5721 5722 5723 5725 5726 5728 5729
5692 5693 5690 5688 5687 5685 5684 5683 5683 5681 5680 5678 5678 5680 5683 5683 5683 5684 5684 5685 5685 5687 5689 5691 5692 5694 5696 5698 5700 5701 5703 5705 5706 5708 5709 5710 5712 5713 5715 5716 5717 5718 5719 5721
5682 5682 5679 5677 5676 5674 5673 5673 5671 5669 5668 5667 5667 5667 5673 5673 5674 5675 5675 5675 5676 5678 5679 5681 5683 5684 5686 5688 5690 5692 5694 5696 5697 5699 5701 5703 5704 5706 5707 5708 5709 5710 5711 5713
5671 5670 5668 5666 5666 5663 5662 5661 5659 5658 5656 5656 5657 5656 5661 5663 5664 5665 5666 5666 5667 5668 5670 5672 5673 5675 5676 5678 5680 5682 5685 5687 5688 5690 5692 5694 5696 5697 5698 5699 5700 5701 5703 5704
5660 5658 5656 5655 5654 5652 5651 5650 5648 5647 5645 5645 5648 5647 5649 5652 5654 5655 5656 5657 5658 5659 5660 5662 5663 5665 5667 5669 5671 5673 5675 5677 5679 5681 5683 5685 5687 5689 5690 5691 5692 5693 5694 5695
5650 5647 5645 5644 5643 5641 5640 5639 5637 5635 5634 5636 5638 5637 5640 5642 5644 5644 5645 5646 5647 5649 5650 5652 5654 5655 5657 5659 5661 5663 5665 5668 5670 5672 5674 5676 5678 5680 5682 5683 5684 5684 5685 5686
5637 5637 5635 5633 5632 5630 5629 5629 5628 5626 5626 5627 5628 5627 5632 5633 5634 5634 5635 5636 5637 5638 5640 5642 5644 5645 5647 5649 5651 5653 5655 5658 5660 5662 5665 5667 5669 5671 5673 5674 5675 5676 5677 5678
5625 5625 5624 5622 5621 5620 5619 5619 5619 5617 5616 5617 5618 5620 5622 5624 5624 5625 5625 5626 5627 5629 5631 5632 5634 5635 5637 5639 5641 5644 5646 5648 5650 5653 5655 5657 5659 5661 5663 5664 5666 5667 5668 5669
5614 5613 5614 5612 5611 5610 5610 5609 5609 5607 5606 5606 5608 5610 5613 5614 5615 5615 5616 5617 5618 5619 5621 5622 5624 5625 5627 5629 5631 5633 5635 5638 5640 5643 5645 5647 5649 5651 5653 5655 5656 5657 5658 5659
5603 5602 5603 5602 5601 5601 5600 5600 5598 5598 5598 5598 5598 5604 5604 5605 5605 5606 5606 5607 5608 5609 5611 5613 5614 5616 5617 5619 5621 5623 5626 5628 5630 5633 5635 5638 5640 5642 5643 5645 5646 5647 5649 5650
5594 5592 5591 5592 5592 5590 5590 5590 5590 5590 5589 5589 5589 5594 5595 5596 5596 5596 5597 5598 5599 5600 5601 5603 5605 5606 5608 5610 5612 5614 5616 5618 5620 5623 5625 5627 5630 5632 5634 5635 5636 5638 5639 5640
5584 5582 5581 5581 5583 5582 5580 5580 5580 5580 5580 5580 5581 5586 5586 5586 5587 5588 5588 5589 5590 5591 5593 5594 5595 5597 5599 5601 5602 5604 5606 5608 5610 5613 5615 5617 5620 5622 5623 5625 5626 5627 5628 5629
5574 5573 5572 5572 5570 5570 5570 5571 5571 5570 5570 5570 5572 5575 5577 5577 5578 5579 5579 5580 5581 5582 5584 5585 5587 5588 5590 5592 5593 5595 5597 5599 5601 5603 5605 5607 5609 5611 5613 5614 5616 5617 5618 5619
5565 5564 5562 5561 5560 5560 5560 5560 5561 5561 5561 5561 5564 5565 5567 5568 5568 5569 5570 5571 5572 5574 5575 5577 5578 5579 5581 5582 5584 5586 5587 5589 5591 5593 5595 5597 5598 5600 5602 5604 5605 5607 5608 5609
5556 5554 5553 5553 5552 5550 5550 5551 5552 5552 5552 5553 5554 5556 5557 5558 5559 5560 5561 5562 5563 5565 5566 5568 5569 5570 5572 5573 5575 5576 5578 5579 5581 5583 5584 5586 5588 5590 5591 5593 5594 5596 5597 5598
5548 5546 5544 5544 5543 5541 5542 5544 5543 5543 5544 5544 5545 5548 5548 5548 5549 5551 5552 5553 5554 5555 5557 5558 5559 5560 5562 5564 5565 5567 5568 5570 5571 5573 5574 5576 5577 5579 5581 5582 5584 5585 5586 5587
5540 5537 5535 5534 5535 5534 5537 5536 5535 5535 5536 5536 5536 5538 5538 5539 5540 5542 5543 5544 5545 5546 5548 5549 5550 5551 5553 5554 5556 5557 5559 5560 5562 5563 5564 5566 5567 5568 5570 5571 5573 5574 5575 5576
5532 5530 5528 5526 5525 5525 5527 5527 5527 5527 5528 5528 5528 5529 5530 5531 5532 5533 5534 5535 5536 5537 5538 5540 5541 5542 5543 5545 5546 5548 5549 5551 5552 5553 5554 5555 5557 5558 5559 5560 5562 5563 5564 5565
5525 5522 5521 5519 5518 5518 5519 5518 5518 5519 5519 5519 5519 5520 5521 5522 5524 5526 5526 5526 5527 5528 5529 5530 5532 5533 5534 5535 5537 5538 5540 5541 5542 5544 5545 5546 5546 5548 5549 5550 5551 5552 5553 5554
5518 5516 5514 5512 5510 5510 5511 5509 5510 5511 5512 5511 5511 5512 5513 5513 5515 5516 5517 5517 5518 5519 5520 5521 5523 5524 5525 5526 5527 5529 5530 5531 5532 5534 5535 5536 5536 5537 5538 5539 5540 5540 5541 5542
5511 5509 5508 5506 5505 5506 5503 5502 5502 5502 5501 5502 5502 5503 5504 5505 5505 5506 5507 5508 5509 5510 5512 5512 5514 5515 5515 5516 5518 5519 5520 5521 5522 5523 5524 5525 5526 5526 5527 5528 5528 5529 5530 5531
5504 5503 5501 5500 5500 5497 5495 5494 5494 5493 5493 5493 5494 5495 5495 5496 5497 5497 5498 5499 5500 5501 5502 5503 5504 5505 5506 5507 5508 5509 5509 5510 5511 5512 5513 5514 5515 5515 5516 5516 5517 5517 5518 5518
5498 5496 5494 5493 5492 5490 5489 5488 5487 5486 5485 5485 5485 5486 5487 5487 5488 5489 5489 5490 5491 5492 5493 5494 5495 5496 5496 5497 5498 5498 5499 5500 5501 5502 5502 5503 5504 5504 5505 5505 5506 5506 5506 5507
5491 5489 5487 5486 5485 5484 5483 5481 5480 5479 5478 5477 5477 5478 5478 5479 5480 5480 5480 5481 5482 5483 5484 5485 5486 5487 5487 5488 5488 5489 5489 5490 5491 5491 5492 5492 5493 5494 5494 5494 5495 5495 5495 5495
5484 5483 5481 5480 5479 5477 5476 5475 5473 5472 5471 5470 5470 5470 5470 5470 5471 5472 5473 5473 5474 5475 5476 5476 5477 5478 5478 5479 5479 5480 5480 5480 5481 5481 5482 5482 5483 5483 5484 5484 5485 5484 5485 5485